This demonstration page uses our WeatherBlox Daily Observations layout. Learn more.

Left ArrowRight Arrow

41.55636, -103.73856

Hourly Observations for March 28, 2017

Temp ( °F °C ) Dew Point ( °F °C ) Humidity (%) Winds ( mph kmh ) Pressure ( in mb ) Visibility ( mi km ) Precip ( " mm )
12:53 am 00:53 Cloudy with Light Rain 49 9.4 42 5.6 77 77 SE 7 11 29.83 1010 8 13 0.02 0.51
1:53 am 01:53 Cloudy with Light Rain 48 8.9 45 7.2 89 89 SSW 6 9 29.83 1010 6 10 0.09 2.29
2:53 am 02:53 Cloudy with Light Rain 48 8.9 45 7.2 89 89 NNE 7 11 29.81 1010 10 16 0.13 3.30
3:03 am 03:03 Cloudy with Light Rain 46 8 45 7 93 93 NE 7 11 29.88 1012 10 16 0.00 0.00
3:11 am 03:11 Cloudy with Light Rain 48 8.9 45 7.2 89 89 NE 7 11 29.85 1011 10 16 0.01 0.25
3:53 am 03:53 Cloudy with Rain 47 8.3 43 6.1 86 86 NE 7 11 29.82 1010 6 10 0.05 1.27
4:11 am 04:11 Cloudy with Light Rain 47 8.3 43 6.1 86 86 ENE 8 13 29.88 1012 6 10 0.03 0.76
4:46 am 04:46 Cloudy with Rain 47 8.3 43 6.1 86 86 ESE 8 13 29.88 1012 3 5 0.15 3.81
4:53 am 04:53 Cloudy with Heavy Rain 47 8.3 43 6.1 86 86 ESE 10 17 29.82 1010 3 5 0.19 4.83
5:04 am 05:04 Cloudy with Rain 46 8 43 6 87 87 ESE 13 20 29.88 1012 4 6 0.00 0.00
5:18 am 05:18 Cloudy with Light Rain 46 8 43 6 87 87 ESE 13 20 29.88 1012 4 6 0.00 0.00
5:53 am 05:53 Cloudy with Light Rain 46 7.8 43 6.1 89 89 ESE 16 26 29.83 1010 7 11 0.10 2.54
6:03 am 06:03 Cloudy with Light Rain 46 8 43 6 87 87 ESE 15 24 29.88 1012 5 8 0.00 0.00
6:27 am 06:27 Cloudy with Light Rain 45 7.2 43 6.1 93 93 ESE 14 22 29.88 1012 7 11 0.01 0.25
6:53 am 06:53 Cloudy with Light Rain 45 7.2 43 6.1 93 93 ESE 14 22 29.85 1011 4 6 0.02 0.51
7:53 am 07:53 Cloudy with Light Rain 45 7.2 43 6.1 93 93 E 13 20 29.87 1012 5 8 0.05 1.27
8:06 am 08:06 Cloudy with Light Rain 46 8 43 6 87 87 ESE 8 13 29.91 1013 5 8 0.00 0.00
8:53 am 08:53 Cloudy 46 7.8 43 6.1 89 89 ESE 13 20 29.87 1012 10 16 0.02 0.51
9:46 am 09:46 Cloudy 46 8 43 6 87 87 E 14 22 29.91 1013 9 14 0.00 0.00
9:53 am 09:53 Cloudy 46 7.8 43 6.1 89 89 E 15 24 29.88 1012 10 16 0.00 0.00
10:11 am 10:11 Cloudy 46 7.8 43 6.1 89 89 ESE 16 26 29.91 1013 10 16 0.00 0.03
10:53 am 10:53 Cloudy with Light Rain 46 7.8 44 6.7 93 93 E 17 28 29.90 1013 8 13 0.00 0.03
11:53 am 11:53 Cloudy with Light Rain 47 8.3 43 6.1 86 86 ESE 21 33 29.90 1013 6 10 0.03 0.76
12:02 pm 12:02 Cloudy with Light Rain 46 8 43 6 87 87 ESE 22 35 29.91 1013 7 11 0.00 0.00
12:10 pm 12:10 Cloudy with Light Rain 46 8 43 6 87 87 E 18 30 29.91 1013 8 13 0.00 0.00
12:53 pm 12:53 Cloudy with Light Rain 45 7.2 42 5.6 90 90 ESE 17 28 29.92 1013 6 10 0.01 0.25
1:25 pm 13:25 Cloudy with Light Rain 45 7.2 42 5.6 90 90 ESE 15 24 29.91 1013 2 3 0.00 0.03
1:29 pm 13:29 Cloudy with Light Rain 45 7.2 43 6.1 93 93 ESE 16 26 29.91 1013 2 3 0.00 0.03
1:39 pm 13:39 Cloudy with Light Rain 45 7.2 42 5.6 90 90 ESE 15 24 29.91 1013 2 2 0.01 0.25
1:53 pm 13:53 Cloudy with Light Rain 45 7.2 42 5.6 90 90 ESE 16 26 29.93 1014 2 3 0.02 0.51
2:01 pm 14:01 Cloudy with Light Rain 45 7.2 43 6.1 93 93 ESE 10 17 29.91 1013 2 3 0.00 0.03
2:10 pm 14:10 Cloudy with Light Rain 45 7 43 6 93 93 E 14 22 29.94 1014 2 3 0.00 0.00
2:18 pm 14:18 Cloudy with Light Rain 45 7 43 6 93 93 E 15 24 29.94 1014 5 8 0.00 0.00
2:34 pm 14:34 Cloudy with Light Rain 45 7 43 6 93 93 ESE 10 17 29.94 1014 6 10 0.00 0.00
2:43 pm 14:43 Cloudy with Rain 45 7.2 42 5.6 90 90 ESE 10 17 29.91 1013 3 5 0.03 0.76
2:47 pm 14:47 Cloudy with Rain 45 7 43 6 93 93 ESE 12 19 29.94 1014 3 5 0.05 1.27
2:51 pm 14:51 Cloudy with Rain 45 7 43 6 93 93 ESE 10 17 29.94 1014 3 5 0.06 1.52
2:53 pm 14:53 Cloudy with Rain 45 7.2 42 5.6 90 90 ESE 9 15 29.93 1014 3 5 0.06 1.52
3:03 pm 15:03 Cloudy with Rain 45 7 43 6 93 93 E 9 15 29.97 1015 3 4 0.00 0.00
3:11 pm 15:11 Cloudy with Rain 45 7.2 43 6.1 93 93 ESE 8 13 29.97 1015 3 5 0.06 1.52
3:30 pm 15:30 Cloudy with Rain 45 7 43 6 93 93 E 12 19 29.97 1015 3 5 0.00 0.00
3:38 pm 15:38 Cloudy with Rain 45 7 43 6 93 93 E 12 19 29.97 1015 3 4 0.00 0.00
3:43 pm 15:43 Cloudy with Light Rain 45 7.2 42 5.6 90 90 E 12 19 29.97 1015 2 3 0.11 2.79
3:49 pm 15:49 Cloudy with Rain 45 7 43 6 93 93 E 10 17 29.97 1015 3 4 0.12 3.05
3:50 pm 15:50 Cloudy with Rain 45 7.2 42 5.6 90 90 E 10 17 29.96 1015 3 4 0.12 3.05
4:03 pm 16:03 Cloudy with Rain 45 7 43 6 93 93 E 14 22 29.97 1015 2 3 0.00 0.00
4:08 pm 16:08 Cloudy with Rain 45 7 43 6 93 93 E 12 19 29.97 1015 2 3 0.00 0.00
4:15 pm 16:15 Cloudy with Rain 45 7.2 42 5.6 90 90 ESE 15 24 30.00 1016 3 4 0.05 1.27
4:24 pm 16:24 Cloudy with Light Rain 45 7 43 6 93 93 E 14 22 30.00 1016 3 4 0.00 0.00
4:32 pm 16:32 Cloudy with Rain 45 7 43 6 93 93 ESE 12 19 30.00 1016 2 3 0.00 0.00
4:35 pm 16:35 Cloudy with Light Rain 44 6.7 42 5.6 93 93 ESE 13 20 30.00 1016 2 3 0.09 2.29
4:41 pm 16:41 Cloudy with Light Rain 44 6.7 41 5 89 89 E 13 20 30.00 1016 2 3 0.10 2.54
4:53 pm 16:53 Cloudy with Light Rain 44 6.7 41 5 89 89 E 17 28 29.99 1016 2 3 0.11 2.79
5:11 pm 17:11 Cloudy with Light Rain 44 6.7 40 4.4 85 85 E 14 22 30.00 1016 4 6 0.01 0.25
5:53 pm 17:53 Cloudy 44 6.7 40 4.4 85 85 E 10 17 30.02 1017 9 14 0.01 0.25
6:53 pm 18:53 Cloudy with Light Rain 43 6.1 40 4.4 89 89 E 8 13 30.05 1018 10 16 0.01 0.25
7:51 pm 19:51 Cloudy with Light Rain 43 6 39 4 87 87 ESE 9 15 30.12 1020 10 16 0.01 0.25
7:53 pm 19:53 Cloudy with Light Rain 42 5.6 39 3.9 89 89 E 12 19 30.08 1019 10 16 0.01 0.25
8:45 pm 20:45 Cloudy with Light Rain 41 5 38 3.3 89 89 E 10 17 30.12 1020 10 16 0.02 0.51
8:53 pm 20:53 Cloudy with Light Rain 41 5 38 3.3 89 89 E 9 15 30.11 1020 10 16 0.02 0.51
9:16 pm 21:16 Cloudy with Light Rain 41 5 37 3 87 87 E 8 13 30.18 1022 9 14 0.00 0.00
9:51 pm 21:51 Cloudy with Light Rain 39 4 37 3 93 93 ENE 9 15 30.18 1022 10 16 0.03 0.76
9:53 pm 21:53 Cloudy with Light Rain 40 4.4 37 2.8 89 89 ENE 8 13 30.13 1020 10 16 0.03 0.76
10:28 pm 22:28 Cloudy 39 4 36 2 87 87 ENE 6 9 30.18 1022 10 16 0.00 0.00
10:53 pm 22:53 Cloudy with Light Rain 40 4.4 36 2.2 86 86 ENE 5 7 30.12 1020 10 16 0.01 0.25
11:25 pm 23:25 Cloudy 40 4.4 37 2.8 89 89 N 3 6 30.18 1022 10 16 0.00 0.03
11:53 pm 23:53 Cloudy 40 4.4 37 2.8 89 89 NNE 5 7 30.11 1020 10 16 0.00 0.03

Powered by AerisWeather